Starlink 32710

operational
NORAD ID: 62604 Int'l Des: 2025-008 Owner: SPXS Country: US Constellation: starlink
LEOCIRCULAR

Über Starlink 32710

Beschreibung wird geladen...

Live-Position

3D-Globus wird geladen...

Nächste Überflüge

Höhenverlauf

Altitude vs Time

uPlot chart will show altitude changes over time

Zweizeiliger Elementsatz

1 62604U 25008T 25306.22132436 .00030393 00000-0 11088-2 0 9990
2 62604 43.0023 277.4546 0000490 284.5966 75.4831 15.27598874 46071
Epoch: 2. Nov. 2025 • Age: 31 hours

Aktueller Status

Höhe 484.5 km
Geschwindigkeit 7.62 km/s
Subsatellitenpunkt -11.44°S, 25.25°E
Startdatum 13. Jan. 2025
Alter 0.8 years
Typ internet

Technische Details

Klassifizierung Payload
Masse 730.00 kg
Trockenmasse 700.00 kg
Gesamtmasse 730.00 kg
Länge 0.30 m
Durchmesser 4.10 m
Spannweite 29.00 m
Form Box + pan
Hersteller SPXS
Bus-Typ Starlink V2M
Phasenstatus In Orbit
Besitzer/Staat SPXS/US

Große Konstellationen

Loading constellations...